Regional Weather Roundup
Issued by NWS

Home | Current Version | Previous Version | Graphics & Text | Print | Product List | Glossary On
Versions: 1 2 3 4 5 6 7 8 9 10 11 12 13 14 15 16 17 18 19 20 21 22 23 24 25 26 27 28 29 30 31 32 33 34 35 36 37 38 39 40 41 42 43 44 45 46 47 48 49 50
797
ASUS45 KSLC 031510
RWRUT

UTAH REGIONAL WEATHER ROUNDUP
NATIONAL WEATHER SERVICE SALT LAKE CITY UT
800 AM MST SAT DEC 03 2016

UTZ001>011-023>025-031600-

NORTHERN UTAH

CITY           SKY/WX    TMP DP  RH WIND       PRES   REMARKS
BRIGHAM CITY     N/A     30  20  66 CALM      30.30R
HILL AFB       CLOUDY    23  15  70 E9        30.27R WCI  13
LOGAN          CLOUDY   N/A N/A N/A CALM      30.27R
OGDEN          CLOUDY    24  16  71 S6        30.28R WCI  17
SALT LAKE CITY CLOUDY    29  19  66 SE10      30.29R WCI  20
TOOELE VALLEY  CLOUDY    27  21  80 S7        30.29R WCI  19
WENDOVER       CLOUDY    27  16  63 E6        30.29R WCI  20
HEBER CITY     CLOUDY    16  10  79 CALM      30.26R
WEST JORDAN    CLOUDY    26  23  88 S10       30.29R WCI  16

$$

UTZ011>015-024>027-031600-

CENTRAL/NORTHEAST UTAH

CITY           SKY/WX    TMP DP  RH WIND       PRES   REMARKS
PROVO AIRPORT  CLOUDY    22  16  78 S6        30.32R WCI  14
MOAB/CANYONLAN CLEAR     17  14  88 CALM      30.21R
DELTA          PTCLDY    16  14  93 CALM      30.28S
PRICE          CLEAR     15   8  73 CALM      30.17R
RICHFIELD      PTCLDY    14  10  85 S2        30.28
ROOSEVELT      CLOUDY    18  12  79 CALM      30.24R
VERNAL         CLOUDY    18  12  77 N5        30.23R WCI  11

$$

UTZ013>016-019>022-027-031600-

SOUTHERN UTAH

CITY           SKY/WX    TMP DP  RH WIND       PRES   REMARKS
BRYCE CANYON   NOT AVBL
CEDAR CITY     PTCLDY    13   9  84 NE6       30.23R WCI   4
MILFORD        CLEAR     13   9  84 SW8       30.25F WCI   2
ST GEORGE      MOSUNNY   28  16  59 N6        30.27R WCI  22
HANKSVILLE     CLEAR     19  14  79 CALM      30.25S
KANAB          CLEAR     28  12  50 N10       30.24R WCI  19
BLANDING       CLEAR     21  15  78 CALM      30.22R

$$

REGIONAL REPORTS     COLORADO/ARIZONA

CITY           SKY/WX    TMP DP  RH WIND       PRES   REMARKS
CRAIG, CO      CLOUDY    13   7  77 CALM      30.18R
GRAND JUNCTION CLOUDY    19  16  88 CALM      30.22R
RIFLE, CO      CLOUDY    20  13  74 W6        30.23R WCI  12
MONTROSE, CO   CLOUDY    26  20  77 SE7       30.22S WCI  18
CORTEZ, CO     CLOUDY    18  16  92 MISG      30.15R
COLORADO CITY    N/A     19  16  86 CALM      30.22R
PAGE, AZ       CLEAR     30  10  43 SW5       30.19S WCI  25
GRAND CANYON   CLEAR     27  12  53 NE13      30.13R WCI  16
KINGMAN, AZ    CLEAR     30  12  47 E12       30.16R WCI  20
FLAGSTAFF, AZ  CLEAR     27  15  61 NE16G26   30.08R WCI  15

$$

REGIONAL REPORTS    NEVADA/IDAHO/WYOMING

CITY           SKY/WX    TMP DP  RH WIND       PRES   REMARKS
LAS VEGAS, NV  PTCLDY    43   9  24 NE13      30.23R
ELY, NY        PTCLDY     4  -1  80 S13       30.26R WCI -13
ELKO, NV       CLOUDY    25  15  66 SW8       30.31R WCI  16
POCATELLO, ID  CLOUDY    30  18  60 SW10      30.22R WCI  21
BURLEY, ID     CLOUDY    32  19  58 SW14      30.21F WCI  22
FORT BRIDGER,  CLOUDY    20  10  65 W20G25    30.16S WCI   5
EVANSTON, WY   CLOUDY    14   8  77 SW10      30.16S WCI   1
ROCK SPRINGS,  CLOUDY    17   7  64 W23       30.10R WCI  -1

$$




USA.gov is the U.S. government's official web portal to all federal, state and local government web resources and services.